THOR ABLESTAR DEB, 224

Orbit data source: Space-Track

THOR ABLESTAR DEB, 224 is space debris in LEO originally from a launch on Thu, 29 Jun 1961 UTC launched from the Air Force Eastern Test Range (AFETR). Debris objects in space refer to the collection of defunct objects orbiting the Earth. Examples of debris include non-operational satellites, rocket bodies, and fragments generated from explosions, collisions, or faulty payload assembly.

Loading next visibility...
Identifier
224, 1961-015BL
Orbit
LEO
Last TLE update
11 hours ago
Origin
Manufacturer
Unknown
Mission
Spacecraft
Bus & Motor
Unknown
Mass
Unknown
Launch date (UTC)
1961-06-29 (64 years ago)
Launch vehicle
Unknown
Launch site
Air Force Eastern Test Range (AFETR)
Object type
Payload
Rocket body
Debris
Shape & HBR
Unknown
Radar Cross Section
Medium (>0.1 m² and <1 m²)

Expand to show TLE details & history

TLE from 11 hours ago
0 THOR ABLESTAR DEB
1 00224U 61015BL  25128.90094881  .00001020  00000-0  59402-3 0  9994
2 00224  66.7353  97.4641 0070977 312.5636  89.5052 14.11369584255459
Epoch: 2025-05-08T21:37Z
Definitive object data (Epoch: 2025-05-08T21:37:21.977Z)
Latitude
38.79056°
Longitude
-73.73736°
Altitude
859.202 km
Speed
7.427 km/s
True Right ascension
07h 50m 16s
True Declination
38° 37' 30"
Sunlit
Object was in daylight at TLE epoch
Visualization TLE readout
Latitude
2.01582°
Longitude
84.15059°
Altitude
892.358 km
Speed
7.388 km/s
Apparent Right ascension
20h 49m 34s
Apparent Declination
-46° 46' 34"
Sunlit
Object is in full shadow
Visualization observer readout
Local Sidereal Time
16:37:24
Azimuth
141.158° SSE
Elevation
-13.265°
Doppler factor
1
Orbital elements
Apogee altitude
904.399 km
Perigee altitude
801.749 km
Semi-major axis
7,231.211 km
Eccentricity
0.0070977
Inclination
66.7353°
RAAN
97.4641°
Arg. of periapsis
312.5636°
True anomaly
90.31854°
Mean anomaly
89.5052°
Eccentric anomaly
89.91187°
Mean motion
3.52961 °/min
BSTAR
0.00059402
Orbital period
101.99 mins
Loading maneuver chart data...
Loading SW <> Apogee altitude chart data...

THOR ABLESTAR DEB Visibility forecast

Observer location: undefined°, undefined°

Span
Click to sort rows by Start time (UTC) header in descending order
Start Az.
Max El. time (UTC)
Max El. Az.
Max El.
End time (UTC)
End Az.
9 mins2025-05-09 09:55:14.147Z304.77° NW2025-05-09 09:59:14.147Z259.971° W23.94°2025-05-09 10:04:14.147Z199.661° SSW
9 mins2025-05-09 23:04:14.147Z186.282° SSW2025-05-09 23:08:14.147Z95.214° ESE40.137°2025-05-09 23:13:14.147Z37.017° NE
7 mins2025-05-10 00:50:14.147Z274.229° WNW2025-05-10 00:53:14.147Z315.429° NNW22.111°2025-05-10 00:57:14.147Z2.992° NNE
10 mins2025-05-10 07:59:14.147Z344.306° N2025-05-10 08:04:14.147Z71.08° E37.617°2025-05-10 08:09:14.147Z130.755° SE
|